Monroe, WI

11:52 AM CDT on May 20, 2018 (GMT -0500)
Monroe Municipal

Weather History for KEFT - September, 2013

Change the Weather History Date:

Tuesday, September 10, 2013

  Actual Average Record
Temperature  
Mean Temperature 84 °F -  
Max Temperature 95 °F 0 °F 95 °F (2013)
Min Temperature 72 °F - 44 °F (2008)
Cooling Degree Days 18    
Growing Degree Days 34 (Base 50)    
Moisture  
Dew Point 59 °F    
Average Humidity 45    
Maximum Humidity 64    
Minimum Humidity 24    
Precipitation  
Precipitation 0.00 in - - ()
Sea Level Pressure  
Sea Level Pressure 29.95 in    
Wind  
Wind Speed 14 mph (SW)    
Max Wind Speed 25 mph    
Max Gust Speed 32 mph    
Visibility 10 miles    
Events      
Averages and records for this station are not official NWS values.
T = Trace of Precipitation, MM = Missing Value Source: NWS Daily Summary

Daily Weather History Graph

Daily Weather History Graph

Search for Another Location

Airport or City:

Astronomy

Sep. 10, 2013 Rise Set
Actual Time 6:33 AM CDT 7:16 PM CDT
Civil Twilight 6:04 AM CDT 7:44 PM CDT
Nautical Twilight 5:30 AM CDT 8:18 PM CDT
Astronomical Twilight 4:55 AM CDT 8:53 PM CDT
Moon 12:06 PM CDT (9/10) 10:11 PM CDT (9/10)
Length of Visible Light 13h 40m
Length of Day
12h 43m
Waxing Crescent, 28% of the Moon is Illuminated
Sep 10
Waxing Crescent
Sep 12
First Quarter
Sep 19
Full
Sep 26
Last Quarter
Oct 4
New

Hourly Weather History & Observations

Time (CDT) Temp. Heat Index Dew Point Humidity Pressure Visibility Wind Dir Wind Speed Gust Speed Precip Events Conditions
12:15 AM 79.7 °F - 66.6 °F 64% 29.87 in 10.0 mi SW 12.7 mph - N/A   Clear
12:35 AM 79.7 °F - 64.9 °F 61% 29.87 in 10.0 mi SW 12.7 mph - N/A   Clear
12:55 AM 79.2 °F - 63.9 °F 59% 29.88 in 10.0 mi SW 11.5 mph - N/A   Clear
1:15 AM 78.3 °F - 63.5 °F 60% 29.88 in 10.0 mi SW 12.7 mph - N/A   Clear
1:35 AM 77.5 °F - 63.5 °F 62% 29.89 in 10.0 mi SW 12.7 mph - N/A   Clear
1:55 AM 77.2 °F - 62.6 °F 61% 29.89 in 10.0 mi SW 13.8 mph - N/A   Clear
2:15 AM 77.9 °F - 62.1 °F 58% 29.90 in 10.0 mi SW 12.7 mph - N/A   Clear
2:35 AM 76.6 °F - 61.9 °F 60% 29.90 in 10.0 mi SW 12.7 mph - N/A   Clear
2:55 AM 76.5 °F - 61.7 °F 60% 29.90 in 10.0 mi SW 12.7 mph - N/A   Clear
3:15 AM 75.9 °F - 61.7 °F 61% 29.90 in 10.0 mi SW 12.7 mph - N/A   Clear
3:35 AM 77.4 °F - 60.8 °F 57% 29.91 in 10.0 mi SW 12.7 mph - N/A   Clear
3:55 AM 77.7 °F - 60.4 °F 55% 29.91 in 10.0 mi SW 15.0 mph 19.6 mph N/A   Clear
4:15 AM 77.2 °F - 60.3 °F 56% 29.91 in 10.0 mi SW 13.8 mph - N/A   Clear
4:35 AM 76.5 °F - 60.3 °F 57% 29.92 in 10.0 mi SW 11.5 mph - N/A   Clear
4:55 AM 76.3 °F - 59.9 °F 57% 29.92 in 10.0 mi SW 12.7 mph - N/A   Clear
5:15 AM 76.1 °F - 59.9 °F 57% 29.93 in 10.0 mi SW 12.7 mph - N/A   Clear
5:35 AM 76.5 °F - 59.5 °F 56% 29.93 in 10.0 mi SW 13.8 mph - N/A   Clear
5:55 AM 75.2 °F - 59.5 °F 58% 29.93 in 10.0 mi SW 11.5 mph - N/A   Clear
6:15 AM 73.8 °F - 59.9 °F 62% 29.94 in 10.0 mi SW 11.5 mph - N/A   Clear
6:35 AM 72.7 °F - 60.1 °F 64% 29.95 in 10.0 mi SW 12.7 mph - N/A   Clear
6:55 AM 73.8 °F - 59.9 °F 62% 29.95 in 10.0 mi SW 11.5 mph - N/A   Clear
7:15 AM 73.0 °F - 60.3 °F 64% 29.96 in 10.0 mi SW 11.5 mph - N/A   Clear
7:35 AM 74.5 °F - 60.3 °F 61% 29.96 in 10.0 mi SSW 13.8 mph - N/A   Clear
7:55 AM 76.1 °F - 60.4 °F 58% 29.96 in 10.0 mi SSW 15.0 mph - N/A   Clear
8:15 AM 76.8 °F - 60.8 °F 58% 29.96 in 10.0 mi SW 12.7 mph - N/A   Clear
8:35 AM 79.5 °F - 60.6 °F 52% 29.96 in 10.0 mi SW 15.0 mph 21.9 mph N/A   Clear
8:55 AM 80.8 °F 81.5 °F 60.4 °F 50% 29.97 in 10.0 mi SW 16.1 mph 24.2 mph N/A   Clear
9:15 AM 82.4 °F 82.9 °F 60.6 °F 48% 29.97 in 10.0 mi SW 12.7 mph 24.2 mph N/A   Clear
9:35 AM 83.8 °F 84.0 °F 60.4 °F 45% 29.98 in 10.0 mi SW 16.1 mph 23.0 mph N/A   Clear
9:55 AM 85.5 °F 85.4 °F 60.6 °F 43% 29.98 in 10.0 mi SW 16.1 mph 24.2 mph N/A   Clear
10:15 AM 86.2 °F 86.1 °F 60.8 °F 42% 29.98 in 10.0 mi SW 15.0 mph 20.7 mph N/A   Clear
10:35 AM 87.4 °F 87.4 °F 61.0 °F 41% 29.98 in 10.0 mi SW 18.4 mph - N/A   Clear
10:55 AM 88.2 °F 88.1 °F 61.0 °F 40% 29.98 in 10.0 mi SW 12.7 mph 23.0 mph N/A   Clear
11:15 AM 89.1 °F 89.0 °F 61.0 °F 39% 29.98 in 7.0 mi SW 13.8 mph - N/A   Clear
11:35 AM 89.8 °F 89.4 °F 60.3 °F 37% 29.98 in 10.0 mi SW 18.4 mph 23.0 mph N/A   Clear
11:55 AM 90.5 °F 90.1 °F 59.9 °F 36% 29.98 in 10.0 mi SW 19.6 mph 25.3 mph N/A   Clear
12:15 PM 91.0 °F 90.5 °F 59.5 °F 35% 29.98 in 10.0 mi SW 24.2 mph 29.9 mph N/A   Clear
12:35 PM 91.6 °F 91.0 °F 59.2 °F 34% 29.98 in 10.0 mi SW 17.3 mph 27.6 mph N/A   Clear
12:55 PM 92.3 °F 91.6 °F 59.2 °F 33% 29.97 in 10.0 mi SSW 18.4 mph 26.5 mph N/A   Clear
1:15 PM 92.8 °F 91.7 °F 58.5 °F 31% 29.98 in 10.0 mi SW 17.3 mph 26.5 mph N/A   Clear
1:35 PM 93.2 °F 92.2 °F 57.9 °F 31% 29.97 in 10.0 mi SSW 19.6 mph 29.9 mph N/A   Clear
1:55 PM 93.9 °F 92.6 °F 57.4 °F 29% 29.97 in 10.0 mi SW 17.3 mph 25.3 mph N/A   Clear
2:15 PM 94.6 °F 92.9 °F 56.3 °F 27% 29.96 in 10.0 mi SSW 23.0 mph 28.8 mph N/A   Clear
2:35 PM 95.0 °F 93.4 °F 56.5 °F 27% 29.96 in 10.0 mi SSW 18.4 mph 29.9 mph N/A   Clear
2:55 PM 95.2 °F 93.6 °F 55.9 °F 27% 29.95 in 10.0 mi SW 23.0 mph 29.9 mph N/A   Clear
3:15 PM 95.7 °F 94.0 °F 55.4 °F 26% 29.95 in 10.0 mi SSW 24.2 mph 29.9 mph N/A   Clear
3:35 PM 95.4 °F 93.2 °F 54.5 °F 25% 29.95 in 10.0 mi SW 25.3 mph 32.2 mph N/A   Clear
3:55 PM 95.5 °F 93.1 °F 53.8 °F 24% 29.94 in 10.0 mi SW 19.6 mph 28.8 mph N/A   Clear
4:15 PM 95.2 °F 93.0 °F 54.1 °F 25% 29.94 in 10.0 mi SW 21.9 mph 29.9 mph N/A   Clear
4:35 PM 95.7 °F 93.7 °F 54.3 °F 25% 29.94 in 10.0 mi SW 18.4 mph 23.0 mph N/A   Clear
4:55 PM 95.0 °F 92.7 °F 54.1 °F 25% 29.93 in 10.0 mi SSW 18.4 mph 21.9 mph N/A   Clear
5:15 PM 94.3 °F 91.8 °F 53.8 °F 25% 29.93 in 10.0 mi SW 21.9 mph 26.5 mph N/A   Clear
5:35 PM 94.1 °F 91.9 °F 54.1 °F 26% 29.93 in 10.0 mi SW 12.7 mph 20.7 mph N/A   Clear
5:55 PM 93.2 °F 91.0 °F 54.5 °F 27% 29.94 in 10.0 mi SW 16.1 mph 20.7 mph N/A   Clear
6:15 PM 92.1 °F 90.2 °F 55.2 °F 29% 29.94 in 10.0 mi SW 13.8 mph - N/A   Clear
6:35 PM 90.7 °F 89.0 °F 55.8 °F 31% 29.94 in 10.0 mi SSW 11.5 mph - N/A   Clear
6:55 PM 88.5 °F 86.9 °F 56.3 °F 33% 29.94 in 10.0 mi SSW 11.5 mph - N/A   Clear
7:15 PM 86.2 °F 85.2 °F 57.6 °F 38% 29.95 in 10.0 mi SSW 9.2 mph - N/A   Clear
7:35 PM 84.2 °F 83.7 °F 58.5 °F 41% 29.95 in 10.0 mi SSW 9.2 mph - N/A   Clear
7:55 PM 83.3 °F 83.2 °F 59.0 °F 44% 29.95 in 10.0 mi SSW 11.5 mph - N/A   Clear
8:15 PM 82.8 °F 82.8 °F 59.4 °F 45% 29.96 in 10.0 mi SSW 11.5 mph - N/A   Clear
8:35 PM 82.6 °F 82.6 °F 59.2 °F 45% 29.97 in 10.0 mi SSW 11.5 mph - N/A   Scattered Clouds
8:55 PM 82.4 °F 82.5 °F 59.0 °F 45% 29.98 in 10.0 mi SSW 12.7 mph - N/A   Mostly Cloudy
9:15 PM 82.4 °F 82.5 °F 59.0 °F 45% 29.97 in 10.0 mi SSW 13.8 mph - N/A   Mostly Cloudy
9:35 PM 81.7 °F 82.0 °F 59.9 °F 47% 29.97 in 10.0 mi SSW 12.7 mph - N/A   Scattered Clouds
9:55 PM 81.0 °F 81.7 °F 60.4 °F 50% 29.97 in 10.0 mi SSW 15.0 mph - N/A   Scattered Clouds
10:15 PM 80.8 °F 81.6 °F 61.0 °F 51% 29.97 in 10.0 mi SSW 16.1 mph - N/A   Scattered Clouds
10:35 PM 79.9 °F - 61.2 °F 53% 29.98 in 10.0 mi SSW 12.7 mph - N/A   Scattered Clouds
10:55 PM 82.4 °F 82.9 °F 60.8 °F 48% 29.99 in 10.0 mi SW 13.8 mph - N/A   Mostly Cloudy
11:15 PM 82.0 °F 82.4 °F 60.3 °F 47% 29.98 in 10.0 mi SW 12.7 mph - N/A   Mostly Cloudy
11:35 PM 81.5 °F 82.1 °F 60.6 °F 49% 29.98 in 10.0 mi SW 12.7 mph - N/A   Mostly Cloudy
11:55 PM 81.3 °F 82.1 °F 61.2 °F 50% 29.98 in 10.0 mi SW 10.4 mph - N/A   Scattered Clouds